| time (UTC) | temp C | wind direction | speed KPH | gust KPH | rain 1hr cm | rain 24hr cm | rain mn cm | humidity % | barometer mb |
| 20260505163743 | 24 | 35 | 1.6 | 4.8 | 0.00 | 0.00 | 0.00 | 43 | 1012.3 |
| 20260505163241 | 23 | 30 | 0.0 | 4.8 | 0.00 | 0.00 | 0.00 | 45 | 1012.3 |
| 20260505162738 | 24 | 294 | 9.7 | 11.3 | 0.00 | 0.00 | 0.00 | 46 | 1012.4 |
| 20260505162235 | 24 | 57 | 1.6 | 4.8 | 0.00 | 0.00 | 0.00 | 45 | 1012.6 |
| 20260505161732 | 23 | 343 | 8.0 | 8.0 | 0.00 | 0.00 | 0.00 | 44 | 1012.5 |
| 20260505161230 | 24 | 229 | 8.0 | 12.9 | 0.00 | 0.00 | 0.00 | 46 | 1012.6 |
| 20260505160727 | 23 | 41 | 1.6 | 9.7 | 0.00 | 0.00 | 0.00 | 48 | 1012.6 |
| 20260505160225 | 23 | 306 | 6.4 | 8.0 | 0.00 | 0.00 | 0.00 | 51 | 1012.5 |
| 20260505153203 | 22 | 2 | 1.6 | 3.2 | 0.00 | 0.00 | 0.00 | 55 | 1012.9 |
| 20260505152700 | 22 | 288 | 6.4 | 9.7 | 0.00 | 0.00 | 0.00 | 55 | 1013.1 |
| 20260505152156 | 22 | 17 | 1.6 | 4.8 | 0.00 | 0.00 | 0.00 | 57 | 1013.1 |
| 20260505151651 | 22 | 8 | 1.6 | 8.0 | 0.00 | 0.00 | 0.00 | 56 | 1013.0 |
| 20260505151149 | 22 | 321 | 4.8 | 8.0 | 0.00 | 0.00 | 0.00 | 58 | 1012.9 |
| 20260505150645 | 22 | 289 | 4.8 | 9.7 | 0.00 | 0.00 | 0.00 | 58 | 1012.9 |
| 20260505150142 | 22 | 283 | 6.4 | 9.7 | 0.00 | 0.00 | 0.00 | 59 | 1013.2 |
| 20260505140611 | 20 | 54 | 1.6 | 4.8 | 0.00 | 0.00 | 0.00 | 66 | 1012.9 |
| 20260505140108 | 20 | 298 | 11.3 | 12.9 | 0.00 | 0.00 | 0.00 | 67 | 1012.6 |
| 20260505125024 | 17 | 261 | 4.8 | 8.0 | 0.00 | 0.00 | 0.00 | 74 | 1013.3 |
| 20260505124521 | 16 | 262 | 6.4 | 9.7 | 0.00 | 0.00 | 0.00 | 76 | 1013.1 |
| 20260505124017 | 16 | 302 | 6.4 | 8.0 | 0.00 | 0.00 | 0.00 | 76 | 1013.1 |
| 20260505123514 | 16 | 343 | 4.8 | 8.0 | 0.00 | 0.00 | 0.00 | 77 | 1012.9 |
| 20260505123010 | 15 | 6 | 1.6 | 3.2 | 0.00 | 0.00 | 0.00 | 78 | 1012.8 |
| 20260505122507 | 15 | 31 | 0.0 | 1.6 | 0.00 | 0.00 | 0.00 | 79 | 1013.0 |
| 20260505122004 | 15 | 23 | 0.0 | 1.6 | 0.00 | 0.00 | 0.00 | 79 | 1012.9 |
| 20260505121501 | 15 | 34 | 0.0 | 0.0 | 0.00 | 0.00 | 0.00 | 80 | 1012.5 |
| 20260505120957 | 14 | 25 | 1.6 | 1.6 | 0.00 | 0.00 | 0.00 | 80 | 1012.7 |
| 20260505120453 | 14 | 5 | 3.2 | 3.2 | 0.00 | 0.00 | 0.00 | 81 | 1012.4 |
| 20260505115952 | 13 | 49 | 0.0 | 1.6 | 0.00 | 0.00 | 0.00 | 82 | 1012.8 |
| 20260505115449 | 13 | 49 | 0.0 | 0.0 | 0.00 | 0.00 | 0.00 | 83 | 1012.6 |
| 20260505114947 | 13 | 49 | 0.0 | 0.0 | 0.00 | 0.00 | 0.00 | 83 | 1012.7 |
| 20260505114443 | 13 | 48 | 0.0 | 0.0 | 0.00 | 0.00 | 0.00 | 84 | 1012.6 |
| 20260505113940 | 13 | 49 | 0.0 | 0.0 | 0.00 | 0.00 | 0.00 | 84 | 1012.6 |
| 20260505113436 | 13 | 49 | 0.0 | 0.0 | 0.00 | 0.00 | 0.00 | 85 | 1012.5 |
| 20260505112932 | 13 | 49 | 0.0 | 0.0 | 0.00 | 0.00 | 0.00 | 85 | 1012.6 |
| 20260505112430 | 13 | 49 | 0.0 | 0.0 | 0.00 | 0.00 | 0.00 | 85 | 1012.8 |
| 20260505111926 | 13 | 49 | 0.0 | 0.0 | 0.00 | 0.00 | 0.00 | 85 | 1012.6 |
| 20260505111420 | 13 | 49 | 0.0 | 0.0 | 0.00 | 0.00 | 0.00 | 85 | 1012.4 |
| 20260505110917 | 13 | 49 | 0.0 | 0.0 | 0.00 | 0.00 | 0.00 | 85 | 1012.5 |
| 20260505110414 | 13 | 49 | 0.0 | 0.0 | 0.00 | 0.00 | 0.00 | 85 | 1012.4 |
| 20260505101845 | 13 | 39 | 0.0 | 0.0 | 0.00 | 0.00 | 0.00 | 81 | 1011.7 |
| 20260505101339 | 13 | 39 | 0.0 | 0.0 | 0.00 | 0.00 | 0.00 | 81 | 1012.0 |
| 20260505100836 | 13 | 39 | 0.0 | 1.6 | 0.00 | 0.00 | 0.00 | 81 | 1011.8 |
| 20260505100333 | 13 | 38 | 1.6 | 1.6 | 0.00 | 0.00 | 0.00 | 81 | 1011.7 |
| 20260505095828 | 13 | 35 | 1.6 | 1.6 | 0.00 | 0.00 | 0.00 | 81 | 1011.7 |
| 20260505095326 | 13 | 34 | 0.0 | 1.6 | 0.00 | 0.00 | 0.00 | 81 | 1011.7 |
| 20260505094821 | 13 | 34 | 1.6 | 1.6 | 0.00 | 0.00 | 0.00 | 81 | 1011.7 |
| 20260505094319 | 13 | 33 | 0.0 | 1.6 | 0.00 | 0.00 | 0.00 | 81 | 1011.8 |
| 20260505093814 | 13 | 29 | 0.0 | 0.0 | 0.00 | 0.00 | 0.00 | 80 | 1011.7 |
| 20260505093312 | 13 | 29 | 0.0 | 0.0 | 0.00 | 0.00 | 0.00 | 80 | 1011.4 |
| 20260505092808 | 13 | 29 | 0.0 | 0.0 | 0.00 | 0.00 | 0.00 | 79 | 1011.7 |
| 20260505092307 | 13 | 29 | 0.0 | 0.0 | 0.00 | 0.00 | 0.00 | 79 | 1011.4 |
| 20260505091804 | 13 | 29 | 0.0 | 0.0 | 0.00 | 0.00 | 0.00 | 78 | 1011.5 |
| 20260505091302 | 13 | 29 | 0.0 | 0.0 | 0.00 | 0.00 | 0.00 | 78 | 1011.6 |
| 20260505090800 | 13 | 29 | 0.0 | 0.0 | 0.00 | 0.00 | 0.00 | 77 | 1011.5 |
| 20260505090258 | 13 | 29 | 0.0 | 0.0 | 0.00 | 0.00 | 0.00 | 77 | 1011.2 |
| 20260505085755 | 13 | 29 | 0.0 | 0.0 | 0.00 | 0.00 | 0.00 | 77 | 1011.4 |
| 20260505085253 | 13 | 29 | 0.0 | 0.0 | 0.00 | 0.00 | 0.00 | 77 | 1011.4 |
| 20260505084750 | 13 | 29 | 0.0 | 0.0 | 0.00 | 0.00 | 0.00 | 76 | 1011.4 |
| 20260505084249 | 13 | 29 | 0.0 | 0.0 | 0.00 | 0.00 | 0.00 | 76 | 1011.6 |
| 20260505083745 | 13 | 29 | 0.0 | 0.0 | 0.00 | 0.00 | 0.00 | 75 | 1011.4 |
| 20260505083242 | 14 | 29 | 0.0 | 0.0 | 0.00 | 0.00 | 0.00 | 75 | 1011.5 |
| 20260505082739 | 14 | 29 | 0.0 | 0.0 | 0.00 | 0.00 | 0.00 | 74 | 1011.6 |
| 20260505082236 | 14 | 29 | 0.0 | 0.0 | 0.00 | 0.00 | 0.00 | 74 | 1011.5 |
| 20260505081732 | 14 | 29 | 0.0 | 0.0 | 0.00 | 0.00 | 0.00 | 74 | 1011.5 |
| 20260505081229 | 15 | 23 | 0.0 | 0.0 | 0.00 | 0.00 | 0.00 | 74 | 1011.7 |
| 20260505080726 | 15 | 23 | 0.0 | 0.0 | 0.00 | 0.00 | 0.00 | 73 | 1011.7 |
| 20260505080221 | 15 | 23 | 0.0 | 0.0 | 0.00 | 0.00 | 0.00 | 73 | 1011.4 |
| 20260505075717 | 15 | 23 | 0.0 | 0.0 | 0.00 | 0.00 | 0.00 | 73 | 1011.4 |
| 20260505075215 | 15 | 23 | 0.0 | 0.0 | 0.00 | 0.00 | 0.00 | 72 | 1011.4 |
| 20260505074712 | 15 | 23 | 0.0 | 0.0 | 0.00 | 0.00 | 0.00 | 72 | 1011.4 |
| 20260505074209 | 15 | 23 | 0.0 | 1.6 | 0.00 | 0.00 | 0.00 | 72 | 1011.5 |
| 20260505073707 | 15 | 21 | 1.6 | 1.6 | 0.00 | 0.00 | 0.00 | 72 | 1011.3 |
| 20260505073204 | 15 | 12 | 1.6 | 3.2 | 0.00 | 0.00 | 0.00 | 72 | 1011.4 |
| 20260505072700 | 15 | 16 | 1.6 | 3.2 | 0.00 | 0.00 | 0.00 | 71 | 1011.1 |
| 20260505072156 | 15 | 20 | 1.6 | 3.2 | 0.00 | 0.00 | 0.00 | 71 | 1011.3 |
| 20260505071652 | 15 | 9 | 1.6 | 1.6 | 0.00 | 0.00 | 0.00 | 71 | 1010.9 |
| 20260505071150 | 15 | 12 | 1.6 | 3.2 | 0.00 | 0.00 | 0.00 | 71 | 1011.0 |
| 20260505070647 | 15 | 29 | 0.0 | 1.6 | 0.00 | 0.00 | 0.00 | 70 | 1011.1 |
| 20260505070143 | 15 | 30 | 0.0 | 1.6 | 0.00 | 0.00 | 0.00 | 70 | 1011.2 |
| 20260505065639 | 15 | 30 | 0.0 | 0.0 | 0.00 | 0.00 | 0.00 | 70 | 1011.1 |
| 20260505065136 | 15 | 30 | 0.0 | 0.0 | 0.00 | 0.00 | 0.00 | 69 | 1011.1 |
| 20260505064633 | 15 | 30 | 0.0 | 1.6 | 0.00 | 0.00 | 0.00 | 69 | 1011.1 |
| 20260505064131 | 15 | 30 | 1.6 | 1.6 | 0.00 | 0.00 | 0.00 | 69 | 1011.2 |
| 20260505063628 | 15 | 30 | 0.0 | 0.0 | 0.00 | 0.00 | 0.00 | 68 | 1011.4 |
| 20260505063124 | 15 | 30 | 0.0 | 1.6 | 0.00 | 0.00 | 0.00 | 68 | 1011.4 |
| 20260505062621 | 15 | 34 | 0.0 | 0.0 | 0.00 | 0.00 | 0.00 | 68 | 1011.3 |
| 20260505062118 | 15 | 34 | 0.0 | 0.0 | 0.00 | 0.00 | 0.00 | 68 | 1011.3 |
| 20260505061615 | 15 | 38 | 0.0 | 1.6 | 0.00 | 0.00 | 0.00 | 68 | 1011.3 |
| 20260505061113 | 16 | 38 | 0.0 | 0.0 | 0.00 | 0.00 | 0.00 | 67 | 1011.6 |
| 20260505060610 | 16 | 39 | 0.0 | 1.6 | 0.00 | 0.00 | 0.00 | 67 | 1011.5 |
| 20260505060107 | 16 | 39 | 0.0 | 0.0 | 0.00 | 0.00 | 0.00 | 67 | 1011.5 |
| 20260505055602 | 16 | 38 | 0.0 | 0.0 | 0.00 | 0.00 | 0.00 | 66 | 1011.4 |
| 20260505055059 | 16 | 40 | 0.0 | 1.6 | 0.00 | 0.00 | 0.00 | 66 | 1011.7 |
| 20260505054556 | 16 | 40 | 0.0 | 1.6 | 0.00 | 0.00 | 0.00 | 66 | 1011.5 |
| 20260505054055 | 16 | 35 | 0.0 | 1.6 | 0.00 | 0.00 | 0.00 | 66 | 1011.5 |
| 20260505053551 | 16 | 47 | 0.0 | 0.0 | 0.00 | 0.00 | 0.00 | 66 | 1011.6 |
| 20260505053048 | 16 | 47 | 0.0 | 0.0 | 0.00 | 0.00 | 0.00 | 65 | 1011.6 |
| 20260505052545 | 16 | 47 | 0.0 | 1.6 | 0.00 | 0.00 | 0.00 | 65 | 1011.8 |
| 20260505052043 | 16 | 47 | 0.0 | 0.0 | 0.00 | 0.00 | 0.00 | 66 | 1011.7 |
| 20260505051539 | 16 | 48 | 0.0 | 1.6 | 0.00 | 0.00 | 0.00 | 66 | 1011.8 |
| 20260505051037 | 16 | 47 | 0.0 | 0.0 | 0.00 | 0.00 | 0.00 | 65 | 1011.8 |
| 20260505050535 | 16 | 47 | 0.0 | 0.0 | 0.00 | 0.00 | 0.00 | 65 | 1011.7 |
| 20260505041503 | 17 | 47 | 0.0 | 1.6 | 0.00 | 0.00 | 0.00 | 62 | 1011.5 |
| 20260505041000 | 17 | 47 | 0.0 | 1.6 | 0.00 | 0.00 | 0.00 | 62 | 1011.7 |
| 20260505040457 | 17 | 47 | 0.0 | 1.6 | 0.00 | 0.00 | 0.00 | 62 | 1011.8 |
| 20260505035954 | 17 | 49 | 0.0 | 1.6 | 0.00 | 0.00 | 0.00 | 61 | 1011.7 |
| 20260505035450 | 17 | 42 | 1.6 | 1.6 | 0.00 | 0.00 | 0.00 | 61 | 1011.6 |
| 20260505034948 | 17 | 47 | 0.0 | 1.6 | 0.00 | 0.00 | 0.00 | 60 | 1011.8 |
| 20260505034444 | 17 | 53 | 1.6 | 1.6 | 0.00 | 0.00 | 0.00 | 60 | 1011.9 |
| 20260505033941 | 17 | 55 | 1.6 | 3.2 | 0.00 | 0.00 | 0.00 | 60 | 1011.8 |
| 20260505033438 | 17 | 53 | 0.0 | 1.6 | 0.00 | 0.00 | 0.00 | 60 | 1011.9 |
| 20260505032936 | 17 | 49 | 0.0 | 1.6 | 0.00 | 0.00 | 0.00 | 60 | 1011.6 |
| 20260505032433 | 18 | 52 | 0.0 | 1.6 | 0.00 | 0.00 | 0.00 | 59 | 1011.8 |
| 20260505031929 | 18 | 56 | 0.0 | 1.6 | 0.00 | 0.00 | 0.00 | 59 | 1011.9 |
| 20260505031427 | 18 | 55 | 0.0 | 1.6 | 0.00 | 0.00 | 0.00 | 59 | 1011.7 |
| 20260505030923 | 18 | 55 | 0.0 | 1.6 | 0.00 | 0.00 | 0.00 | 58 | 1011.6 |
| 20260505030419 | 18 | 55 | 0.0 | 1.6 | 0.00 | 0.00 | 0.00 | 58 | 1011.4 |
| 20260505025915 | 18 | 55 | 0.0 | 1.6 | 0.00 | 0.00 | 0.00 | 57 | 1011.5 |
| 20260505025412 | 18 | 55 | 0.0 | 1.6 | 0.00 | 0.00 | 0.00 | 56 | 1011.7 |
| 20260505024911 | 17 | 55 | 0.0 | 3.2 | 0.00 | 0.00 | 0.00 | 56 | 1011.7 |
| 20260505024408 | 17 | 54 | 0.0 | 1.6 | 0.00 | 0.00 | 0.00 | 57 | 1011.5 |
| 20260505023905 | 17 | 52 | 1.6 | 1.6 | 0.00 | 0.00 | 0.00 | 64 | 1011.6 |
| 20260505023402 | 17 | 53 | 0.0 | 3.2 | 0.00 | 0.00 | 0.00 | 66 | 1011.7 |
| 20260505022859 | 17 | 32 | 0.0 | 0.0 | 0.00 | 0.00 | 0.00 | 68 | 1011.5 |
| 20260505022356 | 17 | 32 | 0.0 | 0.0 | 0.00 | 0.00 | 0.00 | 67 | 1011.4 |
| 20260505021854 | 18 | 32 | 0.0 | 0.0 | 0.00 | 0.00 | 0.00 | 66 | 1011.4 |
| 20260505021350 | 18 | 32 | 0.0 | 1.6 | 0.00 | 0.00 | 0.00 | 65 | 1011.2 |
| 20260505020846 | 18 | 32 | 0.0 | 0.0 | 0.00 | 0.00 | 0.00 | 59 | 1011.1 |
| 20260505020341 | 18 | 32 | 0.0 | 0.0 | 0.00 | 0.00 | 0.00 | 51 | 1011.2 |
| 20260505015839 | 18 | 32 | 0.0 | 0.0 | 0.00 | 0.00 | 0.00 | 51 | 1011.1 |
| 20260505015336 | 18 | 32 | 0.0 | 0.0 | 0.00 | 0.00 | 0.00 | 52 | 1011.0 |
| 20260505014833 | 18 | 32 | 0.0 | 0.0 | 0.00 | 0.00 | 0.00 | 50 | 1011.1 |
| 20260505014330 | 18 | 32 | 0.0 | 0.0 | 0.00 | 0.00 | 0.00 | 49 | 1011.1 |
| 20260505013826 | 19 | 32 | 0.0 | 0.0 | 0.00 | 0.00 | 0.00 | 49 | 1010.9 |
| 20260505013324 | 19 | 32 | 0.0 | 0.0 | 0.00 | 0.00 | 0.00 | 48 | 1010.9 |
| 20260505012822 | 20 | 32 | 0.0 | 0.0 | 0.00 | 0.00 | 0.00 | 47 | 1010.9 |
| 20260505012319 | 20 | 32 | 0.0 | 0.0 | 0.00 | 0.00 | 0.00 | 46 | 1010.9 |
| 20260505011815 | 20 | 32 | 0.0 | 0.0 | 0.00 | 0.00 | 0.00 | 46 | 1010.7 |
| 20260505011312 | 20 | 32 | 0.0 | 0.0 | 0.00 | 0.00 | 0.00 | 45 | 1010.8 |
| 20260505010808 | 20 | 32 | 0.0 | 0.0 | 0.00 | 0.00 | 0.00 | 45 | 1010.6 |
| 20260505010304 | 20 | 32 | 0.0 | 0.0 | 0.00 | 0.00 | 0.00 | 44 | 1010.7 |
| 20260505005801 | 21 | 30 | 0.0 | 0.0 | 0.00 | 0.00 | 0.00 | 44 | 1010.6 |
| 20260505005258 | 21 | 30 | 0.0 | 0.0 | 0.00 | 0.00 | 0.00 | 43 | 1010.6 |
| 20260505004755 | 21 | 30 | 0.0 | 0.0 | 0.00 | 0.00 | 0.00 | 43 | 1010.4 |
| 20260505004251 | 21 | 30 | 0.0 | 0.0 | 0.00 | 0.00 | 0.00 | 42 | 1010.5 |
| 20260505003748 | 21 | 30 | 0.0 | 1.6 | 0.00 | 0.00 | 0.00 | 42 | 1010.3 |
| 20260505003246 | 21 | 30 | 0.0 | 0.0 | 0.00 | 0.00 | 0.00 | 41 | 1010.4 |
| 20260505002742 | 21 | 30 | 0.0 | 1.6 | 0.00 | 0.00 | 0.00 | 41 | 1010.3 |
| 20260505002240 | 22 | 30 | 0.0 | 1.6 | 0.00 | 0.00 | 0.00 | 40 | 1010.2 |
| 20260505001737 | 22 | 41 | 1.6 | 1.6 | 0.00 | 0.00 | 0.00 | 40 | 1010.1 |
| 20260505001235 | 22 | 41 | 0.0 | 1.6 | 0.00 | 0.00 | 0.00 | 40 | 1010.0 |
| 20260505000731 | 22 | 41 | 0.0 | 0.0 | 0.00 | 0.00 | 0.00 | 39 | 1010.0 |
| 20260505000229 | 22 | 41 | 0.0 | 1.6 | 0.00 | 0.00 | 0.00 | 39 | 1009.9 |
| 20260504235725 | 22 | 41 | 0.0 | 0.0 | 0.00 | 0.00 | 0.00 | 38 | 1010.2 |
| 20260504235221 | 23 | 32 | 0.0 | 1.6 | 0.00 | 0.00 | 0.00 | 38 | 1009.9 |
| 20260504234719 | 23 | 32 | 0.0 | 1.6 | 0.00 | 0.00 | 0.00 | 38 | 1010.1 |
| 20260504234216 | 23 | 25 | 0.0 | 3.2 | 0.00 | 0.00 | 0.00 | 38 | 1009.8 |
| 20260504233712 | 23 | 27 | 1.6 | 4.8 | 0.00 | 0.00 | 0.00 | 36 | 1009.7 |
| 20260504233208 | 23 | 35 | 0.0 | 1.6 | 0.00 | 0.00 | 0.00 | 36 | 1009.6 |
| 20260504232706 | 23 | 37 | 1.6 | 1.6 | 0.00 | 0.00 | 0.00 | 37 | 1009.5 |
| 20260504232203 | 24 | 37 | 0.0 | 1.6 | 0.00 | 0.00 | 0.00 | 36 | 1009.6 |
| 20260504231659 | 24 | 48 | 0.0 | 1.6 | 0.00 | 0.00 | 0.00 | 34 | 1009.5 |
| 20260504231155 | 25 | 62 | 1.6 | 1.6 | 0.00 | 0.00 | 0.00 | 34 | 1009.7 |
| 20260504230652 | 25 | 9 | 1.6 | 3.2 | 0.00 | 0.00 | 0.00 | 34 | 1009.6 |
| 20260504230151 | 25 | 57 | 3.2 | 4.8 | 0.00 | 0.00 | 0.00 | 33 | 1009.5 |
| 20260504225649 | 25 | 43 | 0.0 | 3.2 | 0.00 | 0.00 | 0.00 | 34 | 1009.6 |
| 20260504225144 | 25 | 1 | 3.2 | 8.0 | 0.00 | 0.00 | 0.00 | 34 | 1009.6 |
| 20260504224642 | 25 | 322 | 4.8 | 8.0 | 0.00 | 0.00 | 0.00 | 33 | 1009.8 |
| 20260504224138 | 25 | 344 | 3.2 | 4.8 | 0.00 | 0.00 | 0.00 | 34 | 1009.8 |
| 20260504223636 | 25 | 81 | 1.6 | 3.2 | 0.00 | 0.00 | 0.00 | 33 | 1009.6 |
| 20260504223131 | 25 | 57 | 0.0 | 3.2 | 0.00 | 0.00 | 0.00 | 32 | 1009.8 |
| 20260504222628 | 25 | 133 | 4.8 | 4.8 | 0.00 | 0.00 | 0.00 | 32 | 1009.7 |
| 20260504222125 | 25 | 18 | 3.2 | 8.0 | 0.00 | 0.00 | 0.00 | 31 | 1009.5 |
| 20260504221623 | 25 | 23 | 1.6 | 3.2 | 0.00 | 0.00 | 0.00 | 32 | 1009.7 |
| 20260504221119 | 25 | 307 | 6.4 | 8.0 | 0.00 | 0.00 | 0.00 | 29 | 1009.6 |
| 20260504220616 | 25 | 109 | 3.2 | 3.2 | 0.00 | 0.00 | 0.00 | 29 | 1009.6 |
| 20260504220114 | 26 | 310 | 3.2 | 4.8 | 0.00 | 0.00 | 0.00 | 29 | 1009.9 |
| 20260504215609 | 26 | 340 | 6.4 | 8.0 | 0.00 | 0.00 | 0.00 | 29 | 1009.5 |
| 20260504215107 | 26 | 324 | 3.2 | 8.0 | 0.00 | 0.00 | 0.00 | 29 | 1009.5 |
| 20260504214603 | 26 | 292 | 8.0 | 11.3 | 0.00 | 0.00 | 0.00 | 27 | 1009.8 |
| 20260504214059 | 26 | 222 | 6.4 | 9.7 | 0.00 | 0.00 | 0.00 | 29 | 1009.5 |
| 20260504213556 | 26 | 345 | 4.8 | 9.7 | 0.00 | 0.00 | 0.00 | 29 | 1009.5 |
| 20260504213053 | 26 | 284 | 4.8 | 8.0 | 0.00 | 0.00 | 0.00 | 26 | 1009.6 |
| 20260504212549 | 26 | 300 | 8.0 | 9.7 | 0.00 | 0.00 | 0.00 | 28 | 1009.8 |
| 20260504212046 | 26 | 320 | 4.8 | 4.8 | 0.00 | 0.00 | 0.00 | 25 | 1009.7 |
| 20260504211543 | 26 | 337 | 3.2 | 8.0 | 0.00 | 0.00 | 0.00 | 26 | 1009.7 |
| 20260504211040 | 26 | 51 | 0.0 | 3.2 | 0.00 | 0.00 | 0.00 | 25 | 1009.6 |
| 20260504210537 | 26 | 10 | 4.8 | 4.8 | 0.00 | 0.00 | 0.00 | 27 | 1009.8 |
| 20260504210034 | 26 | 47 | 0.0 | 1.6 | 0.00 | 0.00 | 0.00 | 27 | 1009.7 |
| 20260504205532 | 26 | 45 | 0.0 | 3.2 | 0.00 | 0.00 | 0.00 | 27 | 1009.5 |
| 20260504205030 | 26 | 61 | 1.6 | 3.2 | 0.00 | 0.00 | 0.00 | 27 | 1009.8 |
| 20260504204527 | 26 | 49 | 0.0 | 3.2 | 0.00 | 0.00 | 0.00 | 27 | 1009.5 |
| 20260504204026 | 25 | 102 | 4.8 | 8.0 | 0.00 | 0.00 | 0.00 | 30 | 1009.8 |
| 20260504203523 | 25 | 359 | 3.2 | 9.7 | 0.00 | 0.00 | 0.00 | 30 | 1009.8 |
| 20260504203021 | 25 | 330 | 3.2 | 8.0 | 0.00 | 0.00 | 0.00 | 29 | 1009.9 |
| 20260504202516 | 26 | 290 | 4.8 | 8.0 | 0.00 | 0.00 | 0.00 | 29 | 1009.8 |
| 20260504202013 | 26 | 258 | 8.0 | 11.3 | 0.00 | 0.00 | 0.00 | 28 | 1010.0 |
| 20260504201510 | 26 | 52 | 1.6 | 4.8 | 0.00 | 0.00 | 0.00 | 29 | 1010.2 |
| 20260504201008 | 26 | 344 | 4.8 | 8.0 | 0.00 | 0.00 | 0.00 | 29 | 1010.1 |
| 20260504200504 | 26 | 21 | 3.2 | 3.2 | 0.00 | 0.00 | 0.00 | 29 | 1010.1 |
| 20260504200001 | 26 | 326 | 4.8 | 4.8 | 0.00 | 0.00 | 0.00 | 31 | 1010.2 |
| 20260504195457 | 26 | 36 | 0.0 | 3.2 | 0.00 | 0.00 | 0.00 | 29 | 1010.3 |
| 20260504194954 | 25 | 41 | 0.0 | 3.2 | 0.00 | 0.00 | 0.00 | 29 | 1010.2 |
| 20260504194450 | 26 | 322 | 4.8 | 4.8 | 0.00 | 0.00 | 0.00 | 30 | 1010.5 |
| 20260504193945 | 25 | 15 | 1.6 | 4.8 | 0.00 | 0.00 | 0.00 | 30 | 1010.6 |
| 20260504193443 | 24 | 327 | 4.8 | 11.3 | 0.00 | 0.00 | 0.00 | 31 | 1010.7 |
| 20260504192942 | 25 | 294 | 6.4 | 8.0 | 0.00 | 0.00 | 0.00 | 28 | 1011.0 |
| 20260504192438 | 25 | 60 | 1.6 | 4.8 | 0.00 | 0.00 | 0.00 | 29 | 1010.9 |
| 20260504191938 | 25 | 321 | 4.8 | 12.9 | 0.00 | 0.00 | 0.00 | 31 | 1010.9 |
| 20260504191435 | 25 | 63 | 3.2 | 9.7 | 0.00 | 0.00 | 0.00 | 28 | 1011.0 |
| 20260504190930 | 25 | 58 | 1.6 | 3.2 | 0.00 | 0.00 | 0.00 | 31 | 1011.2 |
| 20260504190426 | 25 | 353 | 4.8 | 4.8 | 0.00 | 0.00 | 0.00 | 31 | 1011.4 |
| 20260504185923 | 25 | 16 | 1.6 | 4.8 | 0.00 | 0.00 | 0.00 | 31 | 1011.2 |
| 20260504185420 | 25 | 196 | 4.8 | 4.8 | 0.00 | 0.00 | 0.00 | 30 | 1011.6 |
| 20260504184916 | 24 | 319 | 4.8 | 4.8 | 0.00 | 0.00 | 0.00 | 38 | 1011.5 |
| 20260504184412 | 24 | 339 | 3.2 | 8.0 | 0.00 | 0.00 | 0.00 | 34 | 1011.7 |
| 20260504183908 | 23 | 331 | 4.8 | 8.0 | 0.00 | 0.00 | 0.00 | 33 | 1011.6 |
| 20260504183405 | 25 | 314 | 4.8 | 4.8 | 0.00 | 0.00 | 0.00 | 34 | 1011.6 |
| 20260504182903 | 23 | 31 | 1.6 | 4.8 | 0.00 | 0.00 | 0.00 | 33 | 1011.7 |
| 20260504182400 | 24 | 306 | 6.4 | 9.7 | 0.00 | 0.00 | 0.00 | 34 | 1011.7 |
| 20260504181856 | 24 | 42 | 0.0 | 3.2 | 0.00 | 0.00 | 0.00 | 32 | 1011.6 |
| 20260504181354 | 23 | 293 | 4.8 | 8.0 | 0.00 | 0.00 | 0.00 | 32 | 1012.0 |
| 20260504180853 | 23 | 80 | 1.6 | 4.8 | 0.00 | 0.00 | 0.00 | 32 | 1011.9 |
| 20260504180351 | 23 | 2 | 3.2 | 8.0 | 0.00 | 0.00 | 0.00 | 33 | 1012.0 |
| 20260504175849 | 23 | 284 | 8.0 | 9.7 | 0.00 | 0.00 | 0.00 | 34 | 1012.0 |
| 20260504175345 | 22 | 303 | 8.0 | 12.9 | 0.00 | 0.00 | 0.00 | 37 | 1012.2 |
| 20260504174843 | 22 | 280 | 11.3 | 12.9 | 0.00 | 0.00 | 0.00 | 38 | 1012.1 |
| 20260504174341 | 23 | 108 | 3.2 | 3.2 | 0.00 | 0.00 | 0.00 | 35 | 1012.0 |
| 20260504173837 | 22 | 292 | 6.4 | 9.7 | 0.00 | 0.00 | 0.00 | 38 | 1012.2 |
| 20260504173334 | 22 | 285 | 8.0 | 12.9 | 0.00 | 0.00 | 0.00 | 35 | 1012.4 |
| 20260504172831 | 22 | 62 | 1.6 | 3.2 | 0.00 | 0.00 | 0.00 | 35 | 1012.6 |
| 20260504172328 | 22 | 11 | 3.2 | 3.2 | 0.00 | 0.00 | 0.00 | 37 | 1012.4 |
| 20260504171824 | 22 | 25 | 1.6 | 1.6 | 0.00 | 0.00 | 0.00 | 36 | 1012.3 |
| 20260504171321 | 22 | 279 | 8.0 | 9.7 | 0.00 | 0.00 | 0.00 | 40 | 1012.7 |
| 20260504170818 | 22 | 297 | 4.8 | 4.8 | 0.00 | 0.00 | 0.00 | 38 | 1012.6 |
| 20260504170315 | 21 | 285 | 4.8 | 11.3 | 0.00 | 0.00 | 0.00 | 37 | 1012.4 |